User: anonymous   Login
Location: Chèvreville
(49.1099°N, 2.8495°E)
Time: 20:01:06
(UTC+00:00)
Language:

NOSS 2-1 (D) - Orbit

View from above orbital plane
View from above orbital plane
View from above satellite
View from above satellite

Ground track
Ground track

The orbit data is extracted from the following two-line orbital elements,

1 20692U 90050D   24151.12910047  .00009500  00000-0  80014-3 0  9990
2 20692  63.3022  54.9186 0912060  70.5277 299.1921 13.51626120  3065
Epoch (UTC): 30 May 2024 03:05:54
Eccentricity: 0.0912060
inclination: 63.3022°
perigee height: 387 km
apogee height: 1745 km
right ascension of ascending node: 54.9186°
argument of perigee: 70.5277°
revolutions per day: 13.51626120
mean anomaly at epoch: 299.1921°
orbit number at epoch: 306

The dashed part of the orbit path shows where the satellite is in the earth's shadow,  

DLR